Home > Weather > San Juan > Past weeks

Flag for Puerto Rico Past Weather in San Juan, Puerto Rico — Yesterday and Last 2 Weeks

Now
82 °F

Broken clouds.


Feels Like: 87 °F
Forecast: 80 / 87 °F
Wind: 7 mph from East

Location: Luis Munoz Marin

Current Time: Jun 30, 2016 at 8:27:35 AM

Latest Report: Jun 30, 2016 at 7:56 AM


Visibility: 10 mi

Pressure: 30.07 "Hg

Humidity: 74%

Dew Point: 73 °F

Location of San JuanLocation

Past Weather in San Juan — Graph

°F

San Juan Temperature Yesterday

Maximum temperature yesterday: 89 °F (at 1:56 PM)
Minimum temperature yesterday: 79 °F (at 4:56 AM)
Average temperature yesterday: 83 °F

High & Low Weather Summary for the Past Weeks

 TemperatureHumidityPressure
High91 °F (Jun 15, 10:56 AM)100% (Jun 20, 12:56 AM)30.17 "Hg (Jun 20, 12:56 AM)
Low75 °F (Jun 22, 4:56 AM)50% (Jun 15, 10:56 AM)29.98 "Hg (Jun 27, 4:56 PM)
Average83 °F79%30.05 "Hg
* Reported Jun 15 6:56 AM — Jun 30 6:56 AM, San Juan, Weather by CustomWeather, © 2016

Note: Actual official high and low records may vary slightly from our data, if they occured in-between our weather recording intervals... More about our weather records

Advertising

San Juan Weather History for the Previous 24 Hours

Scroll right to see more
 ConditionsComfort  
Time TempWeatherWind HumidityBarometerVisibility
6:56 AM
Thu, Jun 30
79 °FBroken clouds.3 mph82%30.06 "Hg10 mi
5:56 AM79 °FPartly cloudy.No wind84%30.05 "Hg10 mi
4:56 AM79 °FClear.No wind84%30.04 "Hg10 mi
3:56 AM79 °FClear.3 mph84%30.03 "Hg10 mi
2:56 AM79 °FClear.No wind84%30.03 "Hg10 mi
1:56 AM80 °FPassing clouds.No wind85%30.04 "Hg10 mi
12:56 AM81 °FPassing clouds.6 mph82%30.05 "Hg10 mi
11:56 PM
Wed, Jun 29
81 °FPassing clouds.7 mph82%30.07 "Hg10 mi
10:56 PM82 °FPassing clouds.5 mph79%30.08 "Hg10 mi
9:56 PM82 °FPassing clouds.7 mph79%30.08 "Hg10 mi
8:56 PM82 °FPassing clouds.8 mph79%30.07 "Hg10 mi
7:56 PM83 °FPassing clouds.9 mph77%30.05 "Hg10 mi
6:56 PM84 °FScattered clouds.14 mph72%30.03 "Hg10 mi
5:56 PM86 °FScattered clouds.15 mph63%30.02 "Hg10 mi
4:56 PM87 °FScattered clouds.20 mph61%30.01 "Hg10 mi
3:56 PM87 °FScattered clouds.20 mph57%30.01 "Hg10 mi
2:56 PM89 °FScattered clouds.17 mph55%30.01 "Hg10 mi
1:56 PM89 °FScattered clouds.10 mph59%30.02 "Hg10 mi
12:56 PM84 °FLight rain. Broken clouds.6 mph85%30.05 "Hg10 mi
11:56 AM88 °FLight rain. Broken clouds.9 mph65%30.05 "Hg10 mi
10:56 AM87 °FScattered clouds.13 mph65%30.06 "Hg10 mi
9:56 AM82 °FScattered clouds.5 mph85%30.06 "Hg10 mi
8:56 AM83 °FScattered clouds.6 mph82%30.05 "Hg10 mi
Weather by CustomWeather, © 2016

See weather overviewHow to use our weather pages